Wind_Speed
10 9 10 10 12 13 15 16 17 18 19 20 21 22 22 22 22 22 22 22 21 21 21 21 21 20 20 20 19 19 20 20 20 20 20 19 19 18 19 19 19 19 18 18
8 8 9 11 13 14 15 16 17 18 19 18 19 20 20 21 21 22 21 20 20 20 20 20 19 19 19 19 18 19 18 18 18 18 18 17 17 17 17 17 17 17 16 16
8 9 9 11 12 13 14 16 17 18 18 18 19 19 19 20 20 20 19 19 19 18 18 18 18 18 17 16 16 16 16 15 16 16 15 15 15 15 15 15 15 14 14 13
9 9 11 10 11 13 14 15 16 17 17 17 18 18 18 18 19 18 18 18 17 16 16 16 16 15 15 14 14 13 13 13 14 14 13 12 12 12 12 12 12 12 11 11
8 9 11 11 12 14 15 15 15 16 17 17 18 18 18 18 18 18 18 17 15 15 14 13 13 13 13 11 11 11 11 12 11 11 11 10 11 11 11 10 10 10 10 9
7 9 10 11 12 13 14 15 15 15 16 17 17 17 18 18 18 17 17 15 14 13 12 12 12 11 10 9 9 9 9 9 9 9 8 9 10 10 10 9 8 9 8 8
8 9 10 11 12 12 13 14 15 15 15 15 16 16 16 16 16 15 14 13 12 12 11 10 9 9 8 8 8 8 7 7 6 6 7 8 8 9 9 9 8 7 7 7
9 10 10 11 11 11 12 13 13 13 14 14 14 14 15 15 14 13 12 11 10 10 9 9 8 8 7 7 6 6 6 5 6 7 7 8 8 8 8 9 9 8 7 7
8 9 10 9 10 10 11 11 12 13 13 13 13 14 14 13 12 11 9 9 8 8 7 7 6 6 6 5 4 4 4 4 5 7 7 7 7 7 7 8 8 8 8 7
8 9 9 9 9 10 10 11 11 11 12 12 13 13 13 11 10 9 9 8 6 6 5 5 5 5 4 3 3 3 3 5 5 6 6 7 7 7 7 7 8 8 9 9
8 9 9 9 8 9 9 10 10 10 11 12 12 13 12 10 9 9 8 7 6 5 5 5 4 4 3 3 3 4 4 5 5 6 7 7 7 7 7 8 8 9 9 9
9 9 9 8 8 8 8 8 9 10 10 11 11 11 10 10 9 8 7 7 7 6 5 5 5 4 4 3 4 4 4 5 5 6 6 6 7 7 8 8 8 9 9 10
9 9 8 7 7 7 7 7 8 9 9 10 11 10 10 9 9 8 7 7 6 6 5 5 5 5 5 5 5 4 4 5 5 5 6 6 6 7 7 7 8 8 9 9
8 7 7 6 6 6 6 7 7 8 8 9 10 10 10 9 8 7 7 7 6 6 5 5 5 5 5 5 5 5 5 6 5 5 6 6 6 7 7 7 8 8 9 9
5 5 5 5 5 6 6 6 6 7 8 9 9 10 9 9 8 7 7 6 6 6 5 6 5 5 4 4 4 5 6 6 6 6 6 6 6 7 7 7 7 8 8 8
5 5 4 4 5 5 5 5 5 6 7 8 8 8 8 8 8 8 7 6 5 5 5 5 5 5 5 4 5 5 6 6 6 6 6 6 6 7 7 7 7 7 7 7
5 4 4 4 4 4 4 4 5 5 6 7 7 8 7 7 7 7 6 5 5 5 5 5 5 5 5 5 5 5 5 6 6 6 6 6 6 6 6 6 6 6 6 6
5 4 4 4 4 4 3 4 4 4 5 6 6 7 7 6 6 6 6 5 5 4 4 4 4 5 5 4 4 4 4 5 5 5 5 5 5 5 5 5 5 5 4 5
5 4 4 4 4 3 3 3 3 4 5 5 5 6 6 6 6 5 5 5 5 5 5 5 5 5 5 4 4 4 4 4 4 4 4 4 3 4 4 4 3 3 3 3
5 5 4 4 4 3 3 3 3 3 4 4 5 5 5 5 5 5 5 5 4 4 4 4 5 4 4 4 4 4 3 3 4 4 4 3 3 3 3 3 2 2 2 2
6 5 5 4 4 4 4 3 3 3 4 4 4 4 4 4 4 5 5 5 5 5 5 5 4 4 4 4 4 4 4 3 4 4 4 3 3 3 3 3 3 3 3 3
7 6 5 5 5 4 4 4 4 4 4 4 4 4 4 4 4 4 5 4 5 5 5 5 5 5 5 5 5 5 4 4 4 5 4 4 4 4 4 4 4 4 4 5
8 7 6 5 5 5 5 5 5 4 4 4 4 4 4 4 5 5 5 5 5 5 5 5 5 5 6 6 6 6 6 6 6 6 6 5 6 6 6 6 6 6 7 7
8 8 7 6 6 6 6 6 6 6 6 5 5 6 6 6 6 6 6 6 7 7 7 7 7 7 7 8 8 8 8 8 8 8 8 8 8 8 9 9 9 10 10 11
10 9 9 8 8 7 7 7 7 7 7 7 8 8 8 8 8 8 8 8 8 9 9 9 9 9 10 10 10 10 10 10 10 11 11 11 12 12 12 13 13 14 14 15
12 11 10 10 9 9 9 9 9 9 9 9 9 9 10 10 10 10 10 10 10 10 11 11 11 11 12 12 12 12 12 13 14 14 14 14 15 15 16 17 17 18 19 19
13 13 12 12 11 11 11 11 11 10 10 10 10 11 11 11 12 12 12 12 12 12 13 13 13 13 14 14 14 15 15 16 16 16 17 17 18 18 19 20 20 21 22 23
Wind_Direction
256 258 259 262 268 273 274 272 275 280 284 289 292 295 295 295 296 297 297 298 297 297 295 294 294 294 293 293 294 298 300 300 302 303 304 305 304 304 304 303 303 304 302 301
266 269 270 271 271 271 275 276 280 285 288 294 296 298 298 297 297 298 298 298 300 300 297 296 294 293 295 297 299 302 304 305 305 306 307 307 305 304 306 309 308 307 306 304
271 273 271 276 281 279 281 282 284 287 292 294 295 298 301 302 301 300 301 302 302 301 299 296 295 294 296 301 304 306 307 307 307 308 309 309 308 309 311 314 315 312 309 308
269 273 281 287 289 291 291 291 291 294 296 295 296 300 302 303 305 303 303 304 306 305 301 297 297 299 299 303 307 310 311 311 312 312 313 313 314 317 322 324 325 324 320 317
265 270 282 293 295 293 292 294 296 298 300 301 301 301 301 302 304 304 305 306 306 307 306 304 303 301 302 304 308 313 315 316 318 319 320 321 323 328 330 330 331 332 330 330
275 275 280 291 296 298 300 300 302 304 306 307 306 305 306 305 305 304 304 306 307 308 308 308 309 304 306 309 310 313 318 322 324 324 326 330 334 336 338 339 337 341 344 345
276 279 289 295 300 305 305 306 308 312 314 315 314 312 314 312 309 309 309 306 305 308 311 310 310 310 311 312 310 316 324 330 332 337 339 341 346 350 353 355 354 356 3 7
273 277 287 296 303 309 311 310 313 317 321 322 322 320 320 319 318 319 316 314 311 313 315 311 310 308 305 309 315 322 326 333 338 347 353 356 1 3 6 10 16 18 16 18
277 279 289 300 307 313 318 320 322 324 325 326 328 328 328 327 325 326 328 324 320 321 324 322 321 321 316 314 323 335 345 351 352 355 3 10 13 16 17 19 23 28 25 26
280 286 292 299 305 312 318 323 327 330 334 338 339 339 340 339 337 337 340 342 345 342 344 341 338 338 343 349 347 349 1 7 9 14 19 24 28 28 28 29 32 33 35 40
281 286 290 296 303 314 318 325 332 336 339 342 343 346 350 355 356 356 359 5 10 10 8 2 0 2 6 18 19 22 22 26 31 31 33 33 36 41 45 45 43 45 47 53
280 284 288 294 304 315 321 329 336 341 344 348 351 354 358 2 4 10 15 19 20 22 25 29 36 46 47 43 37 37 41 41 37 35 38 37 39 46 50 51 54 55 59 61
285 288 291 298 302 311 321 331 338 344 348 353 359 3 6 8 10 19 24 24 25 26 31 39 49 52 50 45 46 47 41 39 41 45 46 43 42 44 50 57 61 60 61 63
284 286 288 297 301 307 316 327 337 344 349 355 1 7 11 13 18 24 27 27 31 35 41 45 46 50 52 53 51 47 42 40 41 44 43 42 47 52 59 65 67 67 67 68
286 287 287 291 300 307 313 321 332 342 350 356 1 7 12 18 23 26 26 28 33 39 41 40 43 44 48 46 42 40 39 38 38 41 45 48 56 60 63 68 68 68 69 72
283 288 287 290 298 307 316 321 330 339 349 356 1 5 10 15 20 24 27 30 34 38 40 39 40 43 48 46 41 38 40 42 42 43 47 52 58 59 60 64 67 69 70 72
278 283 286 290 295 307 318 324 330 340 348 358 4 7 11 14 18 21 26 29 27 27 30 34 37 38 38 38 40 42 45 50 51 50 47 50 52 53 55 62 72 76 75 72
267 274 281 285 288 297 311 321 327 338 347 355 4 10 14 18 20 23 27 28 27 29 32 35 32 29 31 32 36 40 42 47 53 49 45 47 48 49 55 63 72 73 72 72
261 268 274 283 289 293 307 322 327 336 347 353 358 5 10 12 14 16 18 19 19 20 20 23 25 24 26 28 25 28 31 31 29 27 25 28 32 38 43 47 54 57 64 69
256 259 264 272 278 282 290 308 323 332 342 350 354 360 6 12 14 14 15 13 10 4 3 4 7 8 10 13 12 10 10 7 6 7 3 1 6 9 14 21 24 18 6 10
255 258 260 265 270 272 277 289 305 319 330 338 344 349 357 3 6 9 10 9 6 1 358 356 356 356 354 354 354 352 349 344 341 344 343 336 331 328 330 331 327 322 311 308
253 255 255 258 262 265 273 280 289 302 314 324 331 334 337 343 349 352 353 351 350 351 352 351 348 343 340 340 338 335 332 330 328 327 326 322 318 313 307 307 311 309 302 298
247 249 251 255 257 265 272 274 280 289 298 306 313 318 319 322 327 332 333 332 328 328 331 331 328 325 324 325 324 321 319 317 315 313 310 306 303 300 297 297 296 293 294 295
241 244 249 253 256 262 270 275 279 282 285 291 298 302 305 309 311 313 314 316 314 311 311 309 308 308 309 311 312 312 310 308 307 305 301 297 294 291 290 291 292 291 291 290
240 244 249 254 258 262 267 272 277 280 284 286 289 293 297 301 302 305 306 306 305 302 303 302 300 299 299 300 302 302 301 300 299 298 296 294 291 289 288 288 288 288 288 288
241 246 251 254 258 263 267 271 275 282 285 285 287 291 294 296 298 300 302 304 305 302 299 298 298 297 296 296 296 296 296 296 295 295 293 292 291 289 287 287 287 287 287 287
244 248 252 255 259 263 267 271 273 277 282 285 287 288 290 292 294 297 298 299 300 302 300 297 297 295 293 292 292 293 294 294 294 292 290 289 289 288 288 287 287 286 286 286
Height
5823 5823 5823 5823 5823 5822 5821 5820 5819 5818 5816 5814 5812 5809 5807 5806 5804 5802 5800 5797 5794 5792 5790 5788 5786 5784 5782 5780 5778 5776 5774 5772 5769 5767 5765 5762 5760 5758 5756 5753 5751 5749 5746 5745
5821 5821 5821 5821 5820 5819 5819 5817 5816 5814 5812 5810 5807 5805 5803 5801 5799 5797 5795 5793 5790 5788 5785 5783 5781 5779 5777 5775 5773 5771 5769 5767 5765 5763 5761 5758 5756 5754 5752 5749 5747 5745 5743 5741
5820 5819 5819 5818 5818 5816 5815 5814 5813 5811 5810 5807 5804 5802 5800 5797 5795 5793 5790 5788 5786 5783 5781 5779 5777 5775 5773 5771 5769 5767 5766 5763 5761 5759 5757 5755 5753 5751 5749 5746 5744 5741 5740 5738
5817 5818 5816 5817 5815 5814 5812 5811 5809 5807 5805 5803 5801 5799 5796 5794 5791 5789 5786 5784 5781 5779 5777 5775 5773 5771 5770 5768 5766 5764 5762 5760 5759 5757 5755 5752 5750 5748 5746 5744 5742 5739 5737 5736
5815 5815 5814 5814 5813 5811 5809 5807 5806 5804 5801 5799 5797 5794 5792 5790 5787 5785 5782 5780 5777 5775 5773 5771 5770 5768 5766 5765 5763 5761 5760 5758 5756 5755 5753 5751 5749 5747 5745 5742 5740 5738 5736 5734
5813 5813 5811 5812 5810 5808 5807 5804 5802 5800 5797 5795 5793 5791 5789 5785 5783 5780 5778 5776 5774 5772 5770 5768 5767 5765 5764 5762 5761 5760 5758 5757 5755 5753 5751 5750 5748 5746 5744 5742 5740 5738 5736 5734
5811 5810 5809 5809 5807 5806 5806 5803 5799 5797 5794 5792 5789 5787 5784 5781 5779 5776 5774 5772 5770 5769 5767 5766 5764 5763 5761 5760 5759 5758 5757 5755 5754 5752 5751 5749 5747 5745 5744 5742 5740 5738 5736 5735
5809 5809 5810 5806 5805 5805 5803 5799 5797 5794 5792 5789 5786 5784 5781 5778 5775 5773 5771 5769 5767 5766 5765 5764 5762 5761 5760 5759 5758 5757 5756 5755 5754 5752 5751 5749 5747 5746 5744 5742 5741 5739 5738 5736
5808 5808 5806 5805 5803 5802 5800 5797 5795 5793 5790 5788 5785 5782 5779 5776 5773 5771 5769 5767 5766 5764 5763 5762 5761 5760 5759 5758 5757 5757 5756 5755 5753 5752 5751 5749 5748 5746 5745 5743 5742 5740 5739 5738
5805 5805 5804 5803 5802 5800 5798 5796 5794 5791 5789 5786 5784 5781 5778 5775 5772 5770 5768 5767 5765 5764 5763 5762 5760 5759 5759 5758 5757 5756 5756 5755 5754 5753 5751 5750 5749 5747 5746 5745 5743 5742 5740 5739
5804 5803 5802 5801 5800 5799 5797 5795 5793 5791 5788 5786 5783 5780 5777 5774 5772 5770 5768 5767 5765 5764 5763 5762 5761 5760 5759 5758 5758 5757 5756 5756 5755 5753 5752 5751 5750 5748 5747 5746 5745 5743 5742 5741
5802 5801 5801 5800 5799 5798 5796 5794 5792 5790 5788 5785 5782 5780 5777 5775 5772 5770 5769 5767 5766 5765 5764 5763 5762 5761 5760 5759 5759 5758 5758 5757 5756 5755 5754 5753 5751 5750 5749 5748 5746 5745 5744 5743
5800 5799 5799 5798 5797 5796 5795 5794 5792 5790 5788 5785 5783 5780 5778 5775 5773 5772 5770 5769 5767 5766 5765 5764 5763 5762 5762 5761 5760 5759 5759 5758 5757 5756 5755 5754 5753 5752 5751 5750 5749 5748 5747 5746
5798 5798 5797 5797 5796 5795 5794 5793 5791 5790 5788 5786 5784 5781 5779 5777 5775 5773 5772 5770 5769 5768 5767 5766 5765 5764 5763 5763 5762 5761 5760 5759 5759 5758 5757 5755 5754 5753 5752 5751 5751 5750 5750 5749
5797 5797 5796 5796 5795 5794 5793 5792 5791 5790 5788 5786 5784 5782 5780 5778 5776 5775 5773 5772 5771 5769 5769 5768 5767 5766 5765 5764 5764 5763 5762 5761 5760 5759 5758 5757 5756 5755 5754 5754 5753 5753 5753 5752
5797 5796 5795 5795 5795 5794 5793 5792 5791 5790 5788 5787 5785 5783 5781 5779 5778 5776 5775 5773 5772 5771 5770 5769 5768 5768 5767 5766 5765 5764 5764 5763 5762 5761 5760 5759 5759 5758 5757 5756 5756 5755 5755 5755
5796 5795 5795 5794 5794 5793 5792 5792 5791 5790 5788 5787 5785 5784 5782 5780 5779 5777 5776 5775 5774 5773 5772 5771 5770 5769 5769 5768 5767 5766 5765 5765 5764 5763 5762 5762 5761 5760 5759 5759 5758 5758 5757 5757
5794 5794 5794 5793 5793 5792 5792 5791 5790 5790 5788 5787 5786 5784 5783 5781 5780 5779 5778 5777 5776 5775 5774 5773 5772 5771 5770 5769 5769 5768 5767 5766 5766 5765 5764 5764 5763 5762 5762 5761 5760 5760 5760 5759
5793 5793 5793 5793 5792 5792 5791 5791 5790 5789 5788 5787 5786 5785 5784 5783 5781 5780 5779 5778 5777 5776 5775 5774 5773 5773 5772 5771 5770 5769 5769 5768 5768 5767 5766 5765 5765 5764 5763 5763 5762 5762 5761 5761
5792 5792 5792 5792 5792 5791 5791 5791 5790 5789 5788 5788 5787 5786 5784 5783 5782 5781 5780 5779 5778 5778 5777 5776 5775 5774 5773 5772 5771 5771 5770 5769 5769 5768 5767 5766 5766 5765 5765 5764 5764 5763 5763 5763
5790 5790 5791 5791 5791 5791 5790 5790 5790 5789 5788 5787 5787 5786 5785 5784 5783 5782 5781 5780 5779 5778 5777 5776 5775 5775 5774 5773 5772 5771 5771 5770 5769 5768 5768 5767 5766 5766 5765 5765 5764 5764 5763 5763
5788 5789 5789 5789 5790 5790 5789 5789 5789 5788 5788 5787 5786 5786 5785 5784 5783 5782 5781 5780 5780 5779 5778 5777 5776 5775 5774 5773 5773 5772 5771 5770 5769 5768 5768 5767 5766 5766 5765 5765 5764 5764 5763 5763
5786 5787 5787 5788 5788 5788 5788 5788 5788 5787 5787 5787 5786 5785 5784 5784 5783 5782 5781 5781 5779 5779 5778 5777 5776 5775 5774 5773 5772 5772 5771 5770 5769 5768 5767 5767 5766 5765 5765 5764 5763 5763 5762 5762
5784 5785 5786 5786 5786 5786 5786 5786 5786 5786 5786 5785 5785 5784 5784 5783 5782 5781 5780 5780 5779 5778 5777 5776 5775 5774 5773 5772 5771 5771 5770 5769 5768 5767 5766 5766 5765 5764 5763 5763 5762 5761 5760 5759
5782 5783 5783 5784 5784 5784 5784 5784 5784 5784 5784 5784 5783 5783 5782 5781 5781 5780 5779 5778 5777 5776 5775 5774 5773 5772 5771 5770 5770 5769 5768 5767 5766 5765 5764 5763 5763 5762 5761 5760 5759 5758 5757 5756
5779 5780 5780 5781 5781 5782 5782 5782 5782 5782 5782 5781 5781 5780 5780 5779 5778 5778 5777 5776 5775 5774 5773 5772 5771 5770 5769 5768 5767 5766 5765 5764 5763 5762 5761 5760 5759 5758 5757 5756 5755 5754 5752 5751
5775 5776 5777 5777 5778 5779 5779 5779 5779 5779 5779 5779 5778 5778 5777 5777 5776 5775 5774 5773 5772 5771 5770 5769 5768 5767 5766 5765 5764 5762 5761 5760 5759 5758 5757 5755 5754 5753 5752 5750 5749 5748 5746 5745